Time,TemperatureF,DewpointF,PressureIn,WindDirection,WindDirectionDegrees,WindSpeedMPH,WindSpeedGustMPH,Humidity,HourlyPrecipIn,Conditions,Clouds,dailyrainin,SoftwareType,DateUTC
2013-02-19 00:00:00,24.6,-11.8,30.18,WSW,242,0.0,0.0,19,0.00,,---,0.00,VWS V14.01,2013-02-19 05:00:00,
2013-02-19 00:01:00,24.6,-11.8,30.18,WSW,242,0.0,0.0,19,0.00,,---,0.00,VWS V14.01,2013-02-19 05:01:00,
2013-02-19 00:06:00,24.3,-12.1,30.18,WSW,242,0.0,3.1,19,0.00,,---,0.00,VWS V14.01,2013-02-19 05:06:00,
2013-02-19 00:11:00,23.9,-11.3,30.18,WSW,242,2.7,3.6,20,0.00,,---,0.04,VWS V14.01,2013-02-19 05:11:00,
2013-02-19 00:16:00,23.7,-11.5,30.18,WSW,242,0.0,2.7,20,0.00,,---,0.00,VWS V14.01,2013-02-19 05:16:00,
2013-02-19 00:21:00,23.9,-11.3,30.18,WSW,242,0.0,0.0,20,0.00,,---,0.00,VWS V14.01,2013-02-19 05:21:00,
2013-02-19 00:26:00,24.1,-12.2,30.18,WSW,242,0.0,0.0,19,0.00,,---,0.00,VWS V14.01,2013-02-19 05:26:00,
2013-02-19 00:31:00,24.4,-11.9,30.18,WSW,242,0.0,0.0,19,0.00,,---,0.00,VWS V14.01,2013-02-19 05:31:00,
2013-02-19 00:36:00,24.6,-11.8,30.18,WSW,242,0.0,0.0,19,0.00,,---,0.00,VWS V14.01,2013-02-19 05:36:00,
2013-02-19 00:41:00,24.8,-11.6,30.18,WSW,242,0.0,0.0,19,0.00,,---,0.00,VWS V14.01,2013-02-19 05:41:00,
2013-02-19 00:46:00,25.2,-11.3,30.18,WSW,242,0.0,0.0,19,0.00,,---,0.00,VWS V14.01,2013-02-19 05:46:00,
2013-02-19 00:51:00,25.3,-11.1,30.18,WSW,242,0.0,0.0,19,0.00,,---,0.00,VWS V14.01,2013-02-19 05:51:00,
2013-02-19 00:56:00,25.5,-11.0,30.18,WSW,242,0.0,0.0,19,0.00,,---,0.00,VWS V14.01,2013-02-19 05:56:00,
2013-02-19 01:01:00,25.5,-11.0,30.18,WSW,242,0.0,0.0,19,0.00,,---,0.00,VWS V14.01,2013-02-19 06:01:00,
2013-02-19 01:06:00,25.5,-11.0,30.15,WSW,242,0.0,0.0,19,0.00,,---,0.00,VWS V14.01,2013-02-19 06:06:00,
2013-02-19 01:11:00,25.5,-11.0,30.15,WSW,242,0.0,0.0,19,0.00,,---,0.00,VWS V14.01,2013-02-19 06:11:00,
2013-02-19 01:16:00,25.5,-11.0,30.15,WSW,242,0.0,2.7,19,0.00,,---,0.00,VWS V14.01,2013-02-19 06:16:00,
2013-02-19 01:21:00,25.5,-11.0,30.15,WSW,242,0.0,0.0,19,0.00,,---,0.00,VWS V14.01,2013-02-19 06:21:00,
2013-02-19 01:26:00,25.7,-10.9,30.15,WSW,242,0.0,0.0,19,0.00,,---,0.00,VWS V14.01,2013-02-19 06:26:00,
2013-02-19 01:31:00,25.9,-10.7,30.15,WSW,242,0.0,0.0,19,0.00,,---,0.00,VWS V14.01,2013-02-19 06:31:00,
2013-02-19 01:36:00,25.9,-8.7,30.15,WSW,242,0.0,0.0,21,0.00,,---,0.00,VWS V14.01,2013-02-19 06:36:00,
2013-02-19 01:41:00,26.1,-8.5,30.15,WSW,242,0.0,0.0,21,0.00,,---,0.00,VWS V14.01,2013-02-19 06:41:00,
2013-02-19 01:46:00,25.9,-8.7,30.15,WSW,242,0.0,0.0,21,0.00,,---,0.00,VWS V14.01,2013-02-19 06:46:00,
2013-02-19 01:51:00,25.9,-8.7,30.15,WSW,242,0.0,0.0,21,0.00,,---,0.00,VWS V14.01,2013-02-19 06:51:00,
2013-02-19 01:56:00,25.7,-8.8,30.15,WSW,242,0.0,0.0,21,0.00,,---,0.00,VWS V14.01,2013-02-19 06:56:00,
2013-02-19 02:01:00,25.7,-8.8,30.15,WSW,242,0.0,0.0,21,0.00,,---,0.00,VWS V14.01,2013-02-19 07:01:00,
2013-02-19 02:06:00,25.7,-8.8,30.15,WSW,242,0.0,0.0,21,0.00,,---,0.00,VWS V14.01,2013-02-19 07:06:00,
2013-02-19 02:11:00,25.7,-8.8,30.15,WSW,242,0.0,0.0,21,0.00,,---,0.00,VWS V14.01,2013-02-19 07:11:00,
2013-02-19 02:16:00,25.9,-8.7,30.15,WSW,242,0.0,0.0,21,0.00,,---,0.00,VWS V14.01,2013-02-19 07:16:00,
2013-02-19 02:22:00,26.1,-8.5,30.12,WSW,242,0.0,2.7,21,0.00,,---,0.00,VWS V14.01,2013-02-19 07:22:00,
2013-02-19 02:27:00,26.2,-8.4,30.12,WSW,242,0.0,0.0,21,0.00,,---,0.00,VWS V14.01,2013-02-19 07:27:00,
2013-02-19 02:32:00,26.2,-8.4,30.12,WSW,242,2.7,4.5,21,0.00,,---,0.00,VWS V14.01,2013-02-19 07:32:00,
2013-02-19 02:37:00,26.6,-8.1,30.12,WSW,242,2.7,3.6,21,0.00,,---,0.00,VWS V14.01,2013-02-19 07:37:00,
2013-02-19 02:42:00,26.8,-7.9,30.12,WSW,242,2.7,2.7,21,0.00,,---,0.00,VWS V14.01,2013-02-19 07:42:00,
2013-02-19 02:47:00,27.1,-7.6,30.12,WSW,242,0.0,0.0,21,0.00,,---,0.00,VWS V14.01,2013-02-19 07:47:00,
2013-02-19 02:52:00,26.8,-7.9,30.12,WSW,242,0.0,0.0,21,0.00,,---,0.00,VWS V14.01,2013-02-19 07:52:00,
2013-02-19 02:57:00,26.4,-8.2,30.12,WSW,242,0.0,0.0,21,0.00,,---,0.00,VWS V14.01,2013-02-19 07:57:00,
2013-02-19 03:02:00,26.2,-8.4,30.12,WSW,242,0.0,0.0,21,0.00,,---,0.00,VWS V14.01,2013-02-19 08:02:00,
2013-02-19 03:07:00,26.1,-8.5,30.12,WSW,242,0.0,0.0,21,0.00,,---,0.00,VWS V14.01,2013-02-19 08:07:00,
2013-02-19 03:12:00,25.9,-5.9,30.12,WSW,241,0.0,0.0,24,0.00,,---,0.00,VWS V14.01,2013-02-19 08:12:00,
2013-02-19 03:17:00,25.7,-6.1,30.12,WSW,242,0.0,0.0,24,0.00,,---,0.00,VWS V14.01,2013-02-19 08:17:00,
2013-02-19 03:22:00,25.5,-6.2,30.12,WSW,242,0.0,0.0,24,0.00,,---,0.00,VWS V14.01,2013-02-19 08:22:00,
2013-02-19 03:27:00,25.5,-6.2,30.12,WSW,242,0.0,0.0,24,0.00,,---,0.00,VWS V14.01,2013-02-19 08:27:00,
2013-02-19 03:32:00,25.3,-6.4,30.12,WSW,242,0.0,0.0,24,0.00,,---,0.00,VWS V14.01,2013-02-19 08:32:00,
2013-02-19 03:37:00,25.2,-6.6,30.12,WSW,242,0.0,0.0,24,0.00,,---,0.00,VWS V14.01,2013-02-19 08:37:00,
2013-02-19 03:42:00,25.2,-6.6,30.12,WSW,242,0.0,0.0,24,0.00,,---,0.00,VWS V14.01,2013-02-19 08:42:00,
2013-02-19 03:47:00,25.3,-6.4,30.12,WSW,242,0.0,0.0,24,0.00,,---,0.00,VWS V14.01,2013-02-19 08:47:00,
2013-02-19 03:52:00,25.5,-6.2,30.12,WSW,242,0.0,0.0,24,0.00,,---,0.00,VWS V14.01,2013-02-19 08:52:00,
2013-02-19 03:57:00,25.9,-5.9,30.12,WSW,242,0.0,0.0,24,0.00,,---,0.00,VWS V14.01,2013-02-19 08:57:00,
2013-02-19 04:02:00,25.5,-6.2,30.12,WSW,242,0.0,0.0,24,0.00,,---,0.00,VWS V14.01,2013-02-19 09:02:00,
2013-02-19 04:07:00,25.5,-6.2,30.12,WSW,242,0.0,0.0,24,0.00,,---,0.00,VWS V14.01,2013-02-19 09:07:00,
2013-02-19 04:12:00,25.5,-6.2,30.12,WSW,242,0.0,0.0,24,0.00,,---,0.00,VWS V14.01,2013-02-19 09:12:00,
2013-02-19 04:17:00,25.5,-6.2,30.12,WSW,242,0.0,0.0,24,0.00,,---,0.00,VWS V14.01,2013-02-19 09:17:00,
2013-02-19 04:22:00,25.5,-6.2,30.12,WSW,242,0.0,0.0,24,0.00,,---,0.00,VWS V14.01,2013-02-19 09:22:00,
2013-02-19 04:27:00,25.2,-6.6,30.12,WSW,242,0.0,0.0,24,0.00,,---,0.00,VWS V14.01,2013-02-19 09:27:00,
2013-02-19 04:32:00,25.2,-6.6,30.12,WSW,242,0.0,0.0,24,0.00,,---,0.00,VWS V14.01,2013-02-19 09:32:00,
2013-02-19 04:37:00,25.2,-6.6,30.12,WSW,242,0.0,0.0,24,0.00,,---,0.00,VWS V14.01,2013-02-19 09:37:00,
2013-02-19 04:42:00,25.0,-6.7,30.12,WSW,242,0.0,0.0,24,0.00,,---,0.00,VWS V14.01,2013-02-19 09:42:00,
2013-02-19 04:47:00,25.0,-6.7,30.12,WSW,242,0.0,0.0,24,0.00,,---,0.00,VWS V14.01,2013-02-19 09:47:00,
2013-02-19 04:52:00,25.0,-6.7,30.12,WSW,242,0.0,0.0,24,0.00,,---,0.00,VWS V14.01,2013-02-19 09:52:00,
2013-02-19 04:57:00,24.6,-7.0,30.12,WSW,242,0.0,0.0,24,0.00,,---,0.00,VWS V14.01,2013-02-19 09:57:00,
2013-02-19 05:02:00,24.4,-7.2,30.12,WSW,242,0.0,0.0,24,0.00,,---,0.00,VWS V14.01,2013-02-19 10:02:00,
2013-02-19 05:07:00,24.3,-7.3,30.09,WSW,242,0.0,0.0,24,0.00,,---,0.00,VWS V14.01,2013-02-19 10:07:00,
2013-02-19 05:12:00,23.9,-5.2,30.09,WSW,242,0.0,0.0,27,0.00,,---,0.00,VWS V14.01,2013-02-19 10:12:00,
2013-02-19 05:17:00,23.7,-5.4,30.09,WSW,242,0.0,0.0,27,0.00,,---,0.00,VWS V14.01,2013-02-19 10:17:00,
2013-02-19 05:22:00,23.7,-5.4,30.09,WSW,242,0.0,0.0,27,0.00,,---,0.00,VWS V14.01,2013-02-19 10:22:00,
2013-02-19 05:27:00,23.4,-3.5,30.09,WSW,242,0.0,0.0,30,0.00,,---,0.00,VWS V14.01,2013-02-19 10:27:00,
2013-02-19 05:32:00,23.2,-3.6,30.09,WSW,242,0.0,0.0,30,0.00,,---,0.00,VWS V14.01,2013-02-19 10:32:00,
2013-02-19 05:37:00,23.0,-3.8,30.09,WSW,242,0.0,0.0,30,0.00,,---,0.00,VWS V14.01,2013-02-19 10:37:00,
2013-02-19 05:42:00,22.8,-2.6,30.09,WSW,242,0.0,0.0,32,0.00,,---,0.00,VWS V14.01,2013-02-19 10:42:00,
2013-02-19 05:47:00,23.0,-2.5,30.09,WSW,242,0.0,0.0,32,0.00,,---,0.00,VWS V14.01,2013-02-19 10:47:00,
2013-02-19 05:52:00,22.8,-2.6,30.09,WSW,242,0.0,0.0,32,0.00,,---,0.00,VWS V14.01,2013-02-19 10:52:00,
2013-02-19 05:57:00,22.6,-2.8,30.09,WSW,242,0.0,0.0,32,0.00,,---,0.00,VWS V14.01,2013-02-19 10:57:00,
2013-02-19 06:02:00,22.5,-2.9,30.09,WSW,242,0.0,0.0,32,0.00,,---,0.00,VWS V14.01,2013-02-19 11:02:00,
2013-02-19 06:07:00,22.3,-2.4,30.06,WSW,242,0.0,0.0,33,0.00,,---,0.00,VWS V14.01,2013-02-19 11:07:00,
2013-02-19 06:12:00,22.3,-2.4,30.06,WSW,242,0.0,0.0,33,0.00,,---,0.00,VWS V14.01,2013-02-19 11:12:00,
2013-02-19 06:17:00,22.3,-2.4,30.06,WSW,242,0.0,0.0,33,0.00,,---,0.00,VWS V14.01,2013-02-19 11:17:00,
2013-02-19 06:22:00,22.1,-2.6,30.06,WSW,241,0.0,0.0,33,0.00,,---,0.00,VWS V14.01,2013-02-19 11:22:00,
2013-02-19 06:27:00,21.9,-2.1,30.06,WSW,242,0.0,0.0,34,0.00,,---,0.00,VWS V14.01,2013-02-19 11:27:00,
2013-02-19 06:32:00,21.9,-2.1,30.06,WSW,242,0.0,0.0,34,0.00,,---,0.00,VWS V14.01,2013-02-19 11:32:00,
2013-02-19 06:37:00,21.9,-1.5,30.06,WSW,242,0.0,0.0,35,0.00,,---,0.00,VWS V14.01,2013-02-19 11:37:00,
2013-02-19 06:42:00,21.7,-1.7,30.06,WSW,242,0.0,0.0,35,0.00,,---,0.00,VWS V14.01,2013-02-19 11:42:00,
2013-02-19 06:47:00,21.7,-1.7,30.06,WSW,242,0.0,0.0,35,0.00,,---,0.00,VWS V14.01,2013-02-19 11:47:00,
2013-02-19 06:52:00,21.7,-1.7,30.06,WSW,242,0.0,0.0,35,0.00,,---,0.00,VWS V14.01,2013-02-19 11:52:00,
2013-02-19 06:58:00,21.7,-1.7,30.06,WSW,242,0.0,0.0,35,0.00,,---,0.00,VWS V14.01,2013-02-19 11:58:00,
2013-02-19 07:03:00,21.7,-1.1,30.06,WSW,242,0.0,0.0,36,0.00,,---,0.00,VWS V14.01,2013-02-19 12:03:00,
2013-02-19 07:08:00,21.9,-0.9,30.06,WSW,242,0.0,0.0,36,0.00,,---,0.00,VWS V14.01,2013-02-19 12:08:00,
2013-02-19 07:13:00,21.9,-0.9,30.06,WSW,242,0.0,0.0,36,0.00,,---,0.00,VWS V14.01,2013-02-19 12:13:00,
2013-02-19 07:18:00,22.1,-0.8,30.06,WSW,242,0.0,0.0,36,0.00,,---,0.00,VWS V14.01,2013-02-19 12:18:00,
2013-02-19 07:23:00,22.3,-0.6,30.06,WSW,242,0.0,0.0,36,0.00,,---,0.00,VWS V14.01,2013-02-19 12:23:00,
2013-02-19 07:28:00,23.5,1.7,30.06,WSW,242,0.0,0.0,38,0.00,,---,0.00,VWS V14.01,2013-02-19 12:28:00,
2013-02-19 07:33:00,24.6,2.1,30.06,WSW,242,0.0,0.0,37,0.00,,---,0.00,VWS V14.01,2013-02-19 12:33:00,
2013-02-19 07:38:00,24.8,1.6,30.06,WSW,242,0.0,0.0,36,0.00,,---,0.00,VWS V14.01,2013-02-19 12:38:00,
2013-02-19 07:43:00,24.6,0.9,30.06,WSW,242,0.0,0.0,35,0.00,,---,0.00,VWS V14.01,2013-02-19 12:43:00,
2013-02-19 07:48:00,25.7,1.9,30.06,WSW,242,0.0,0.0,35,0.00,,---,0.00,VWS V14.01,2013-02-19 12:48:00,
2013-02-19 07:53:00,26.6,2.7,30.06,WSW,242,0.0,0.0,35,0.00,,---,0.00,VWS V14.01,2013-02-19 12:53:00,
2013-02-19 07:58:00,27.1,2.5,30.06,WSW,242,0.0,0.0,34,0.00,,---,0.00,VWS V14.01,2013-02-19 12:58:00,
2013-02-19 08:03:00,28.0,2.7,30.06,WSW,242,0.0,0.0,33,0.00,,---,0.00,VWS V14.01,2013-02-19 13:03:00,
2013-02-19 08:08:00,28.2,2.8,30.06,WSW,242,0.0,0.0,33,0.00,,---,0.00,VWS V14.01,2013-02-19 13:08:00,
2013-02-19 08:13:00,28.2,2.2,30.06,WSW,242,0.0,0.0,32,0.00,,---,0.00,VWS V14.01,2013-02-19 13:13:00,
2013-02-19 08:18:00,28.4,2.3,30.06,WSW,242,0.0,0.0,32,0.00,,---,0.00,VWS V14.01,2013-02-19 13:18:00,
2013-02-19 08:23:00,28.8,2.6,30.06,WSW,242,0.0,0.0,32,0.00,,---,0.00,VWS V14.01,2013-02-19 13:23:00,
2013-02-19 08:28:00,29.1,3.0,30.06,WSW,242,0.0,0.0,32,0.00,,---,0.00,VWS V14.01,2013-02-19 13:28:00,
2013-02-19 08:33:00,29.8,2.9,30.06,WSW,242,0.0,0.0,31,0.00,,---,0.00,VWS V14.01,2013-02-19 13:33:00,
2013-02-19 08:38:00,30.4,3.4,30.03,WSW,242,0.0,0.0,31,0.00,,---,0.00,VWS V14.01,2013-02-19 13:38:00,
2013-02-19 08:43:00,31.3,4.2,30.03,WSW,242,0.0,0.0,31,0.00,,---,0.00,VWS V14.01,2013-02-19 13:43:00,
2013-02-19 08:48:00,32.4,5.1,30.03,WSW,242,0.0,0.0,31,0.00,,---,0.00,VWS V14.01,2013-02-19 13:48:00,
2013-02-19 08:53:00,33.3,5.2,30.03,WSW,242,0.0,0.0,30,0.00,,---,0.00,VWS V14.01,2013-02-19 13:53:00,
2013-02-19 08:58:00,34.0,5.8,30.03,WSW,242,0.0,0.0,30,0.00,,---,0.00,VWS V14.01,2013-02-19 13:58:00,
2013-02-19 09:03:00,34.3,6.1,30.03,WSW,242,0.0,0.0,30,0.00,,---,0.00,VWS V14.01,2013-02-19 14:03:00,
2013-02-19 09:08:00,33.6,3.2,30.03,WSW,242,0.0,0.0,27,0.00,,---,0.00,VWS V14.01,2013-02-19 14:08:00,
2013-02-19 09:13:00,33.8,3.4,30.03,WSW,242,0.0,0.0,27,0.00,,---,0.00,VWS V14.01,2013-02-19 14:13:00,
2013-02-19 09:18:00,34.3,3.8,30.03,WSW,242,0.0,0.0,27,0.00,,---,0.00,VWS V14.01,2013-02-19 14:18:00,
2013-02-19 09:23:00,35.4,4.8,30.00,WSW,242,0.0,0.0,27,0.00,,---,0.00,VWS V14.01,2013-02-19 14:23:00,
2013-02-19 09:28:00,36.1,5.4,30.00,SW,218,2.7,7.4,27,0.00,,---,0.00,VWS V14.01,2013-02-19 14:28:00,
2013-02-19 09:33:00,37.0,7.8,30.00,SSW,198,4.0,6.3,29,0.00,,---,0.00,VWS V14.01,2013-02-19 14:33:00,
2013-02-19 09:38:00,37.9,8.5,30.03,SW,220,6.3,6.3,29,0.00,,---,0.00,VWS V14.01,2013-02-19 14:38:00,
2013-02-19 09:43:00,38.5,6.6,30.03,SW,218,5.8,10.1,26,0.00,,---,0.00,VWS V14.01,2013-02-19 14:43:00,
2013-02-19 09:48:00,38.7,6.7,30.03,SSW,202,4.0,7.4,26,0.00,,---,0.00,VWS V14.01,2013-02-19 14:48:00,
2013-02-19 09:53:00,39.0,7.1,30.03,SSW,209,5.4,10.1,26,0.00,,---,0.00,VWS V14.01,2013-02-19 14:53:00,
2013-02-19 09:58:00,39.2,7.2,30.03,ESE,120,0.0,9.6,26,0.00,,---,0.00,VWS V14.01,2013-02-19 14:58:00,
2013-02-19 10:03:00,39.4,7.4,30.03,SW,219,5.4,8.7,26,0.00,,---,0.00,VWS V14.01,2013-02-19 15:03:00,
2013-02-19 10:08:00,40.1,8.0,30.00,SW,217,0.0,6.9,26,0.00,,---,0.00,VWS V14.01,2013-02-19 15:08:00,
2013-02-19 10:13:00,41.0,8.8,30.00,SSE,159,4.0,6.7,26,0.00,,---,0.00,VWS V14.01,2013-02-19 15:13:00,
2013-02-19 10:18:00,41.4,6.4,30.00,SE,146,6.3,8.3,23,0.00,,---,0.00,VWS V14.01,2013-02-19 15:18:00,
2013-02-19 10:23:00,41.5,6.5,30.00,SE,145,3.6,7.4,23,0.00,,---,0.00,VWS V14.01,2013-02-19 15:23:00,
2013-02-19 10:28:00,41.7,6.7,30.00,SSE,150,0.0,6.3,23,0.00,,---,0.00,VWS V14.01,2013-02-19 15:28:00,
2013-02-19 10:34:00,42.1,7.0,30.00,SSW,196,0.0,6.9,23,0.00,,---,0.00,VWS V14.01,2013-02-19 15:34:00,
2013-02-19 10:39:00,42.1,7.0,29.97,SSW,196,2.7,4.5,23,0.00,,---,0.00,VWS V14.01,2013-02-19 15:39:00,
2013-02-19 10:44:00,41.7,6.7,29.97,SE,131,3.1,6.9,23,0.00,,---,0.00,VWS V14.01,2013-02-19 15:44:00,
2013-02-19 10:49:00,42.3,9.0,29.97,SE,144,0.0,6.3,25,0.00,,---,0.00,VWS V14.01,2013-02-19 15:49:00,
2013-02-19 10:54:00,42.4,9.1,29.97,SE,141,4.5,6.9,25,0.00,,---,0.00,VWS V14.01,2013-02-19 15:54:00,
2013-02-19 10:59:00,43.5,10.0,29.97,SSW,213,8.3,9.2,25,0.00,,---,0.00,VWS V14.01,2013-02-19 15:59:00,
2013-02-19 11:04:00,43.7,10.2,29.97,SE,138,2.7,8.3,25,0.00,,---,0.00,VWS V14.01,2013-02-19 16:04:00,
2013-02-19 11:09:00,44.1,10.5,29.94,SSW,207,3.1,9.2,25,0.00,,---,0.00,VWS V14.01,2013-02-19 16:09:00,
2013-02-19 11:14:00,44.1,10.5,29.94,ESE,121,4.0,10.1,25,0.00,,---,0.00,VWS V14.01,2013-02-19 16:14:00,
2013-02-19 11:19:00,43.3,9.9,29.94,SSW,211,4.5,7.4,25,0.00,,---,0.00,VWS V14.01,2013-02-19 16:19:00,
2013-02-19 11:24:00,43.3,9.9,29.94,SW,224,7.4,8.7,25,0.00,,---,0.00,VWS V14.01,2013-02-19 16:24:00,
2013-02-19 11:29:00,43.5,10.0,29.94,South,179,6.3,8.3,25,0.00,,---,0.00,VWS V14.01,2013-02-19 16:29:00,
2013-02-19 11:34:00,43.7,10.2,29.94,SSW,205,4.9,7.4,25,0.00,,---,0.00,VWS V14.01,2013-02-19 16:34:00,
2013-02-19 11:39:00,44.1,10.5,29.94,SSW,194,3.1,7.4,25,0.00,,---,0.00,VWS V14.01,2013-02-19 16:39:00,
2013-02-19 11:44:00,44.6,11.0,29.94,SSE,149,6.3,7.4,25,0.00,,---,0.00,VWS V14.01,2013-02-19 16:44:00,
2013-02-19 11:49:00,45.0,11.3,29.94,SW,222,6.3,7.8,25,0.00,,---,0.00,VWS V14.01,2013-02-19 16:49:00,
2013-02-19 11:54:00,45.5,8.9,29.94,SSE,163,5.8,9.2,22,0.00,,---,0.00,VWS V14.01,2013-02-19 16:54:00,
2013-02-19 11:59:00,46.0,9.3,29.94,SSW,193,4.5,11.0,22,0.00,,---,0.00,VWS V14.01,2013-02-19 16:59:00,
2013-02-19 12:04:00,46.0,9.3,29.94,WSW,247,5.8,8.7,22,0.00,,---,0.00,VWS V14.01,2013-02-19 17:04:00,
2013-02-19 12:09:00,46.6,9.8,29.94,SE,129,4.9,8.7,22,0.00,,---,0.00,VWS V14.01,2013-02-19 17:09:00,
2013-02-19 12:14:00,47.3,10.4,29.94,South,187,4.9,6.7,22,0.00,,---,0.00,VWS V14.01,2013-02-19 17:14:00,
2013-02-19 12:19:00,47.3,9.4,29.94,ESE,108,7.4,7.4,21,0.00,,---,0.00,VWS V14.01,2013-02-19 17:19:00,
2013-02-19 12:24:00,46.9,10.1,29.91,SSE,159,6.7,9.6,22,0.00,,---,0.00,VWS V14.01,2013-02-19 17:24:00,
2013-02-19 12:29:00,46.2,9.5,29.91,SSW,213,6.3,10.5,22,0.00,,---,0.00,VWS V14.01,2013-02-19 17:29:00,
2013-02-19 12:34:00,46.0,11.3,29.91,ESE,115,5.4,8.3,24,0.00,,---,0.00,VWS V14.01,2013-02-19 17:34:00,
2013-02-19 12:39:00,45.5,10.8,29.91,South,177,4.9,11.6,24,0.00,,---,0.00,VWS V14.01,2013-02-19 17:39:00,
2013-02-19 12:44:00,45.5,11.7,29.91,SE,135,4.9,8.3,25,0.00,,---,0.00,VWS V14.01,2013-02-19 17:44:00,
2013-02-19 12:49:00,45.3,11.6,29.91,SW,231,8.7,8.7,25,0.00,,---,0.00,VWS V14.01,2013-02-19 17:49:00,
2013-02-19 12:54:00,45.0,13.0,29.88,ESE,119,2.7,9.6,27,0.00,,---,0.00,VWS V14.01,2013-02-19 17:54:00,
2013-02-19 12:59:00,45.0,13.0,29.88,SSE,161,9.2,11.6,27,0.00,,---,0.00,VWS V14.01,2013-02-19 17:59:00,
2013-02-19 13:04:00,45.1,13.2,29.88,SE,145,7.8,11.0,27,0.00,,---,0.00,VWS V14.01,2013-02-19 18:04:00,
2013-02-19 13:09:00,45.3,14.1,29.88,SSW,207,4.9,7.8,28,0.00,,---,0.00,VWS V14.01,2013-02-19 18:09:00,
2013-02-19 13:14:00,45.1,14.0,29.88,SSW,211,4.5,13.9,28,0.00,,---,0.00,VWS V14.01,2013-02-19 18:14:00,
2013-02-19 13:19:00,44.8,13.7,29.88,SSW,207,6.3,11.0,28,0.00,,---,0.00,VWS V14.01,2013-02-19 18:19:00,
2013-02-19 13:24:00,44.6,13.5,29.88,SSW,197,3.1,8.7,28,0.00,,---,0.00,VWS V14.01,2013-02-19 18:24:00,
2013-02-19 13:29:00,44.6,13.5,29.88,SSW,201,3.6,7.4,28,0.00,,---,0.00,VWS V14.01,2013-02-19 18:29:00,
2013-02-19 13:34:00,44.6,13.5,29.88,South,188,4.9,9.2,28,0.00,,---,0.00,VWS V14.01,2013-02-19 18:34:00,
2013-02-19 13:39:00,44.6,13.5,29.88,SSW,211,8.3,10.5,28,0.00,,---,0.00,VWS V14.01,2013-02-19 18:39:00,
2013-02-19 13:44:00,44.2,14.0,29.88,SW,216,8.7,14.3,29,0.00,,---,0.00,VWS V14.01,2013-02-19 18:44:00,
2013-02-19 13:49:00,43.3,16.2,29.88,SW,218,14.3,14.3,33,0.00,,---,0.00,VWS V14.01,2013-02-19 18:49:00,
2013-02-19 13:54:00,42.6,18.8,29.85,SSW,192,8.3,14.3,38,0.00,,---,0.00,VWS V14.01,2013-02-19 18:54:00,
2013-02-19 13:59:00,42.1,18.9,29.85,WSW,238,6.7,10.1,39,0.00,,---,0.00,VWS V14.01,2013-02-19 18:59:00,
2013-02-19 14:04:00,41.7,19.8,29.85,SW,214,6.7,8.7,41,0.00,,---,0.00,VWS V14.01,2013-02-19 19:04:00,
2013-02-19 14:09:00,41.2,20.4,29.85,SW,217,5.8,10.1,43,0.00,,---,0.00,VWS V14.01,2013-02-19 19:09:00,
2013-02-19 14:14:00,40.6,20.5,29.85,SSW,213,0.0,6.9,44,0.00,,---,0.00,VWS V14.01,2013-02-19 19:14:00,
2013-02-19 14:19:00,40.5,21.3,29.85,SSW,207,4.9,6.3,46,0.00,,---,0.00,VWS V14.01,2013-02-19 19:19:00,
2013-02-19 14:24:00,40.5,22.8,29.85,SSW,201,4.5,8.7,49,0.04,,---,0.04,VWS V14.01,2013-02-19 19:24:00,
2013-02-19 14:29:00,40.3,23.1,29.85,SSW,193,8.3,9.6,50,0.04,,---,0.04,VWS V14.01,2013-02-19 19:29:00,
2013-02-19 14:34:00,40.1,23.9,29.85,SSW,206,2.7,8.3,52,0.04,,---,0.04,VWS V14.01,2013-02-19 19:34:00,
2013-02-19 14:39:00,40.3,24.5,29.83,SE,146,5.8,5.8,53,0.04,,---,0.04,VWS V14.01,2013-02-19 19:39:00,
2013-02-19 14:44:00,40.3,25.0,29.83,SW,226,0.0,6.9,54,0.04,,---,0.04,VWS V14.01,2013-02-19 19:44:00,
2013-02-19 14:49:00,40.1,25.2,29.83,SE,141,0.0,7.4,55,0.04,,---,0.04,VWS V14.01,2013-02-19 19:49:00,
2013-02-19 14:54:00,40.3,26.3,29.83,SSE,162,2.7,6.3,57,0.04,,---,0.04,VWS V14.01,2013-02-19 19:54:00,
2013-02-19 14:59:00,40.1,26.5,29.83,SW,214,0.0,6.9,58,0.04,,---,0.04,VWS V14.01,2013-02-19 19:59:00,
2013-02-19 15:04:00,40.1,26.5,29.83,SW,214,3.1,4.5,58,0.04,,---,0.04,VWS V14.01,2013-02-19 20:04:00,
2013-02-19 15:09:00,40.3,27.1,29.83,SSW,201,4.0,6.9,59,0.04,,---,0.04,VWS V14.01,2013-02-19 20:09:00,
2013-02-19 15:14:00,40.3,27.9,29.83,SSW,209,4.0,6.3,61,0.04,,---,0.04,VWS V14.01,2013-02-19 20:14:00,
2013-02-19 15:19:00,40.3,28.3,29.83,SSW,207,2.7,5.8,62,0.04,,---,0.04,VWS V14.01,2013-02-19 20:19:00,
2013-02-19 15:24:00,40.3,28.7,29.80,SSW,206,3.6,7.4,63,0.04,,---,0.04,VWS V14.01,2013-02-19 20:24:00,
2013-02-19 15:29:00,40.5,29.3,29.80,SE,126,2.7,5.4,64,0.04,,---,0.08,VWS V14.01,2013-02-19 20:29:00,
2013-02-19 15:34:00,40.3,29.1,29.80,SE,126,0.0,3.6,64,0.04,,---,0.08,VWS V14.01,2013-02-19 20:34:00,
2013-02-19 15:39:00,40.3,29.1,29.80,SE,127,3.1,4.5,64,0.04,,---,0.08,VWS V14.01,2013-02-19 20:39:00,
2013-02-19 15:44:00,40.3,29.5,29.80,SE,127,0.0,4.9,65,0.04,,---,0.08,VWS V14.01,2013-02-19 20:44:00,
2013-02-19 15:49:00,40.1,29.7,29.80,SSE,151,0.0,6.3,66,0.04,,---,0.08,VWS V14.01,2013-02-19 20:49:00,
2013-02-19 15:54:00,39.9,29.5,29.80,SSE,152,0.0,4.0,66,0.04,,---,0.08,VWS V14.01,2013-02-19 20:54:00,
2013-02-19 15:59:00,39.9,29.5,29.80,East,95,4.0,4.0,66,0.04,,---,0.08,VWS V14.01,2013-02-19 20:59:00,
2013-02-19 16:04:00,39.9,29.9,29.80,East,95,0.0,2.7,67,0.04,,---,0.08,VWS V14.01,2013-02-19 21:04:00,
2013-02-19 16:09:00,39.7,29.7,29.77,ESE,121,3.6,4.0,67,0.04,,---,0.08,VWS V14.01,2013-02-19 21:09:00,
2013-02-19 16:14:00,39.7,30.1,29.77,ESE,121,3.1,3.1,68,0.04,,---,0.08,VWS V14.01,2013-02-19 21:14:00,
2013-02-19 16:19:00,39.6,29.9,29.77,ESE,121,3.6,4.0,68,0.04,,---,0.08,VWS V14.01,2013-02-19 21:19:00,
2013-02-19 16:24:00,39.6,30.2,29.74,SE,129,3.6,4.5,69,0.04,,---,0.08,VWS V14.01,2013-02-19 21:24:00,
2013-02-19 16:29:00,39.4,30.1,29.74,SE,129,0.0,4.0,69,0.00,,---,0.08,VWS V14.01,2013-02-19 21:29:00,
2013-02-19 16:34:00,39.6,30.6,29.74,SE,130,0.0,0.0,70,0.00,,---,0.08,VWS V14.01,2013-02-19 21:34:00,
2013-02-19 16:39:00,39.6,31.0,29.74,SSE,167,0.0,2.7,71,0.00,,---,0.08,VWS V14.01,2013-02-19 21:39:00,
2013-02-19 16:44:00,39.6,31.0,29.74,SSE,167,0.0,0.0,71,0.00,,---,0.08,VWS V14.01,2013-02-19 21:44:00,
2013-02-19 16:49:00,39.6,31.3,29.74,SSW,211,3.6,4.0,72,0.00,,---,0.08,VWS V14.01,2013-02-19 21:49:00,
2013-02-19 16:54:00,39.7,31.5,29.74,South,181,2.7,3.6,72,0.00,,---,0.08,VWS V14.01,2013-02-19 21:54:00,
2013-02-19 16:59:00,39.7,31.8,29.74,SW,214,3.1,5.8,73,0.00,,---,0.08,VWS V14.01,2013-02-19 21:59:00,
2013-02-19 17:04:00,40.1,32.2,29.74,SSW,194,0.0,4.9,73,0.00,,---,0.08,VWS V14.01,2013-02-19 22:04:00,
2013-02-19 17:09:00,40.1,32.2,29.71,SW,217,3.1,5.8,73,0.04,,---,0.12,VWS V14.01,2013-02-19 22:09:00,
2013-02-19 17:14:00,40.3,32.7,29.71,South,175,5.8,5.8,74,0.04,,---,0.12,VWS V14.01,2013-02-19 22:14:00,
2013-02-19 17:19:00,40.3,32.7,29.71,SW,215,4.0,5.4,74,0.04,,---,0.12,VWS V14.01,2013-02-19 22:19:00,
2013-02-19 17:24:00,40.3,32.7,29.71,SW,214,4.9,4.9,74,0.04,,---,0.12,VWS V14.01,2013-02-19 22:24:00,
2013-02-19 17:29:00,40.3,32.7,29.71,SW,216,4.0,5.8,74,0.04,,---,0.12,VWS V14.01,2013-02-19 22:29:00,
2013-02-19 17:34:00,40.3,33.0,29.71,SSW,202,2.7,5.4,75,0.04,,---,0.12,VWS V14.01,2013-02-19 22:34:00,
2013-02-19 17:39:00,40.3,33.0,29.71,SSW,202,4.0,4.5,75,0.04,,---,0.12,VWS V14.01,2013-02-19 22:39:00,
2013-02-19 17:44:00,40.3,33.0,29.71,SW,226,4.5,4.5,75,0.08,,---,0.16,VWS V14.01,2013-02-19 22:44:00,
2013-02-19 17:49:00,40.3,33.0,29.71,SE,145,2.7,2.7,75,0.08,,---,0.16,VWS V14.01,2013-02-19 22:49:00,
2013-02-19 17:54:00,40.3,33.0,29.71,SW,214,4.5,5.8,75,0.08,,---,0.16,VWS V14.01,2013-02-19 22:54:00,
2013-02-19 17:59:00,40.3,33.3,29.71,SW,214,2.7,5.8,76,0.08,,---,0.16,VWS V14.01,2013-02-19 22:59:00,
2013-02-19 18:04:00,40.3,33.3,29.71,SW,216,0.0,4.5,76,0.08,,---,0.16,VWS V14.01,2013-02-19 23:04:00,
2013-02-19 18:09:00,40.1,33.2,29.71,SW,216,3.6,3.6,76,0.04,,---,0.16,VWS V14.01,2013-02-19 23:09:00,
2013-02-19 18:14:00,40.1,33.2,29.71,SW,216,3.6,3.6,76,0.04,,---,0.16,VWS V14.01,2013-02-19 23:14:00,
2013-02-19 18:19:00,40.1,33.2,29.71,SW,216,3.1,3.6,76,0.04,,---,0.16,VWS V14.01,2013-02-19 23:19:00,
2013-02-19 18:24:00,40.1,33.2,29.71,SW,216,0.0,0.0,76,0.04,,---,0.16,VWS V14.01,2013-02-19 23:24:00,
2013-02-19 18:29:00,40.1,33.2,29.71,SW,222,2.7,4.0,76,0.04,,---,0.16,VWS V14.01,2013-02-19 23:29:00,
2013-02-19 18:34:00,40.3,33.3,29.71,SW,222,0.0,3.1,76,0.04,,---,0.16,VWS V14.01,2013-02-19 23:34:00,
2013-02-19 18:39:00,40.1,33.2,29.68,SW,224,2.7,3.1,76,0.04,,---,0.16,VWS V14.01,2013-02-19 23:39:00,
2013-02-19 18:44:00,40.1,33.2,29.68,SW,224,3.6,4.9,76,0.00,,---,0.16,VWS V14.01,2013-02-19 23:44:00,
2013-02-19 18:50:00,40.1,33.5,29.68,SW,224,3.1,3.1,77,0.00,,---,0.16,VWS V14.01,2013-02-19 23:50:00,
2013-02-19 18:55:00,39.9,33.3,29.68,SW,224,0.0,0.0,77,0.00,,---,0.16,VWS V14.01,2013-02-19 23:55:00,
2013-02-19 19:00:00,39.9,33.3,29.68,SW,224,0.0,0.0,77,0.00,,---,0.16,VWS V14.01,2013-02-20 00:00:00,
2013-02-19 19:05:00,39.9,33.3,29.68,SW,224,2.7,4.0,77,0.04,,---,0.20,VWS V14.01,2013-02-20 00:05:00,
2013-02-19 19:10:00,39.9,33.3,29.68,SW,224,0.0,0.0,77,0.04,,---,0.20,VWS V14.01,2013-02-20 00:10:00,
2013-02-19 19:15:00,39.7,33.1,29.68,SW,224,0.0,0.0,77,0.04,,---,0.20,VWS V14.01,2013-02-20 00:15:00,
2013-02-19 19:20:00,39.6,33.0,29.68,SW,224,3.1,3.1,77,0.04,,---,0.20,VWS V14.01,2013-02-20 00:20:00,
2013-02-19 19:25:00,39.6,33.0,29.68,SW,224,3.1,3.6,77,0.04,,---,0.20,VWS V14.01,2013-02-20 00:25:00,
2013-02-19 19:30:00,39.6,33.0,29.68,SW,224,0.0,2.7,77,0.04,,---,0.20,VWS V14.01,2013-02-20 00:30:00,
2013-02-19 19:35:00,39.7,33.1,29.68,SW,224,0.0,0.0,77,0.04,,---,0.20,VWS V14.01,2013-02-20 00:35:00,
2013-02-19 19:40:00,39.2,32.6,29.68,SW,224,2.7,3.1,77,0.04,,---,0.20,VWS V14.01,2013-02-20 00:40:00,
2013-02-19 19:45:00,39.4,32.8,29.68,SW,224,0.0,3.1,77,0.04,,---,0.20,VWS V14.01,2013-02-20 00:45:00,
2013-02-19 19:50:00,39.6,33.0,29.68,SW,225,6.3,6.3,77,0.04,,---,0.20,VWS V14.01,2013-02-20 00:50:00,
2013-02-19 19:55:00,39.7,33.1,29.65,SW,223,4.5,5.8,77,0.04,,---,0.20,VWS V14.01,2013-02-20 00:55:00,
2013-02-19 20:00:00,39.7,33.1,29.65,SW,225,3.1,5.4,77,0.04,,---,0.20,VWS V14.01,2013-02-20 01:00:00,
2013-02-19 20:05:00,39.9,33.3,29.65,SW,218,5.4,5.4,77,0.00,,---,0.20,VWS V14.01,2013-02-20 01:05:00,
2013-02-19 20:10:00,39.9,33.3,29.65,WSW,251,3.6,5.8,77,0.00,,---,0.20,VWS V14.01,2013-02-20 01:10:00,
2013-02-19 20:15:00,39.9,33.3,29.65,WNW,287,4.0,6.7,77,0.00,,---,0.20,VWS V14.01,2013-02-20 01:15:00,
2013-02-19 20:20:00,39.9,33.3,29.65,WNW,283,0.0,4.9,77,0.00,,---,0.20,VWS V14.01,2013-02-20 01:20:00,
2013-02-19 20:25:00,39.9,33.3,29.65,WSW,246,4.9,8.7,77,0.00,,---,0.20,VWS V14.01,2013-02-20 01:25:00,
2013-02-19 20:30:00,39.9,33.6,29.65,WSW,253,3.1,8.3,78,0.00,,---,0.20,VWS V14.01,2013-02-20 01:30:00,
2013-02-19 20:35:00,39.9,33.6,29.65,SW,233,5.4,6.3,78,0.00,,---,0.20,VWS V14.01,2013-02-20 01:35:00,
2013-02-19 20:40:00,39.9,33.6,29.65,WSW,250,4.0,6.3,78,0.00,,---,0.20,VWS V14.01,2013-02-20 01:40:00,
2013-02-19 20:45:00,39.9,33.6,29.65,West,276,8.7,10.1,78,0.00,,---,0.20,VWS V14.01,2013-02-20 01:45:00,
2013-02-19 20:50:00,39.9,33.6,29.65,SW,234,7.8,11.0,78,0.00,,---,0.20,VWS V14.01,2013-02-20 01:50:00,
2013-02-19 20:55:00,40.1,33.8,29.65,West,281,4.5,6.3,78,0.00,,---,0.20,VWS V14.01,2013-02-20 01:55:00,
2013-02-19 21:00:00,40.1,33.8,29.65,West,278,6.9,12.5,78,0.04,,---,0.24,VWS V14.01,2013-02-20 02:00:00,
2013-02-19 21:05:00,39.9,33.6,29.65,WSW,249,6.3,17.7,78,0.04,,---,0.24,VWS V14.01,2013-02-20 02:05:00,
2013-02-19 21:10:00,39.7,33.5,29.65,WNW,294,3.6,8.3,78,0.04,,---,0.24,VWS V14.01,2013-02-20 02:10:00,
2013-02-19 21:15:00,39.6,33.3,29.65,West,263,7.8,12.5,78,0.04,,---,0.24,VWS V14.01,2013-02-20 02:15:00,
2013-02-19 21:20:00,39.4,33.1,29.65,WSW,256,6.9,10.1,78,0.04,,---,0.24,VWS V14.01,2013-02-20 02:20:00,
2013-02-19 21:25:00,39.2,32.9,29.65,West,265,8.7,12.5,78,0.04,,---,0.24,VWS V14.01,2013-02-20 02:25:00,
2013-02-19 21:30:00,39.0,32.8,29.65,WNW,295,4.9,11.0,78,0.04,,---,0.24,VWS V14.01,2013-02-20 02:30:00,
2013-02-19 21:35:00,38.8,32.6,29.65,WNW,288,0.0,4.5,78,0.04,,---,0.24,VWS V14.01,2013-02-20 02:35:00,
2013-02-19 21:40:00,38.8,32.6,29.65,West,263,4.0,6.7,78,0.04,,---,0.24,VWS V14.01,2013-02-20 02:40:00,
2013-02-19 21:45:00,38.7,32.4,29.65,WSW,241,6.9,7.4,78,0.04,,---,0.24,VWS V14.01,2013-02-20 02:45:00,
2013-02-19 21:51:00,38.7,32.4,29.65,SW,234,0.0,6.3,78,0.04,,---,0.24,VWS V14.01,2013-02-20 02:51:00,
2013-02-19 21:56:00,38.5,32.5,29.65,SW,236,6.3,6.9,79,0.04,,---,0.24,VWS V14.01,2013-02-20 02:56:00,
2013-02-19 22:01:00,38.5,32.5,29.65,West,269,4.0,6.3,79,0.00,,---,0.24,VWS V14.01,2013-02-20 03:01:00,
2013-02-19 22:05:00,38.3,32.4,29.65,West,280,7.4,7.8,79,0.00,,---,0.24,VWS V14.01,2013-02-20 03:05:00,
2013-02-19 22:11:00,38.3,32.4,29.65,West,275,5.4,7.4,79,0.00,,---,0.24,VWS V14.01,2013-02-20 03:11:00,
2013-02-19 22:16:00,38.3,32.4,29.65,West,275,0.0,4.5,79,0.00,,---,0.24,VWS V14.01,2013-02-20 03:16:00,
2013-02-19 22:21:00,38.1,32.2,29.65,West,278,2.7,8.3,79,0.00,,---,0.24,VWS V14.01,2013-02-20 03:21:00,
2013-02-19 22:26:00,38.1,32.2,29.65,WSW,245,6.7,6.7,79,0.00,,---,0.24,VWS V14.01,2013-02-20 03:26:00,
2013-02-19 22:31:00,37.9,32.0,29.65,WNW,286,5.4,7.8,79,0.00,,---,0.24,VWS V14.01,2013-02-20 03:31:00,
2013-02-19 22:36:00,37.9,32.0,29.65,SW,217,5.8,7.4,79,0.00,,---,0.24,VWS V14.01,2013-02-20 03:36:00,
2013-02-19 22:41:00,37.8,31.8,29.65,NW,312,2.7,7.4,79,0.00,,---,0.24,VWS V14.01,2013-02-20 03:41:00,
2013-02-19 22:46:00,37.8,31.8,29.65,WSW,240,4.5,11.0,79,0.00,,---,0.24,VWS V14.01,2013-02-20 03:46:00,
2013-02-19 22:51:00,37.8,31.8,29.65,WSW,238,4.9,5.4,79,0.00,,---,0.24,VWS V14.01,2013-02-20 03:51:00,
2013-02-19 22:56:00,37.8,31.8,29.65,SW,233,5.8,5.8,79,0.00,,---,0.24,VWS V14.01,2013-02-20 03:56:00,
2013-02-19 23:01:00,37.8,31.8,29.65,WNW,294,8.3,8.3,79,0.00,,---,0.24,VWS V14.01,2013-02-20 04:01:00,
2013-02-19 23:06:00,37.6,31.4,29.65,WSW,258,7.4,9.6,78,0.00,,---,0.24,VWS V14.01,2013-02-20 04:06:00,
2013-02-19 23:11:00,37.6,31.4,29.65,SW,232,9.6,15.9,78,0.00,,---,0.24,VWS V14.01,2013-02-20 04:11:00,
2013-02-19 23:16:00,37.6,31.4,29.65,WSW,241,6.7,13.9,78,0.00,,---,0.24,VWS V14.01,2013-02-20 04:16:00,
2013-02-19 23:21:00,37.4,31.2,29.65,SW,234,5.8,14.3,78,0.00,,---,0.24,VWS V14.01,2013-02-20 04:21:00,
2013-02-19 23:26:00,37.2,30.4,29.65,West,269,11.6,13.4,76,0.00,,---,0.24,VWS V14.01,2013-02-20 04:26:00,
2013-02-19 23:31:00,37.0,29.9,29.65,WSW,253,6.7,11.0,75,0.00,,---,0.24,VWS V14.01,2013-02-20 04:31:00,
2013-02-19 23:36:00,37.0,29.5,29.65,SSW,196,4.9,13.0,74,0.00,,---,0.24,VWS V14.01,2013-02-20 04:36:00,
2013-02-19 23:41:00,36.9,28.0,29.65,West,260,10.5,20.1,70,0.00,,---,0.24,VWS V14.01,2013-02-20 04:41:00,
2013-02-19 23:46:00,36.7,26.4,29.65,WNW,298,4.9,15.2,66,0.00,,---,0.24,VWS V14.01,2013-02-20 04:46:00,
2013-02-19 23:51:00,36.5,24.0,29.65,NW,325,12.5,15.4,60,0.00,,---,0.24,VWS V14.01,2013-02-20 04:51:00,
2013-02-19 23:56:00,36.3,22.1,29.65,WSW,254,9.6,17.2,56,0.00,,---,0.24,VWS V14.01,2013-02-20 04:56:00,